Location: ??
(31.9467°N, 34.8903°E)
Time: 04:20:45
(UTC+00:00)

X-37B - Pass Details

Date: 31 January 2021
Orbit: 383 x 391 km, 45.0° (Epoch: 27 February)

Event Time Altitude Azimuth Distance (km) Brightness Sun altitude
Rises 16:32:44 0° 307° (NW) 2,271 5.1 -17.0°
Reaches altitude 10° 16:34:49 10° 311° (NW) 1,416 4.0 -17.5°
Maximum altitude 16:37:59 64° 34° (NE) 433 0.5 -18.1°
Enters shadow 16:38:04 64° 44° (NE) 434 0.5 -18.1°
